Torna al catalogo

HAWK-5A

AttivoMilitarePO
NORAD 52757·PAYLOAD·🇺🇸 United States

Lanciato May 25, 2022 da Cape Canaveral Space Force Station

Loading…

Prossimi Passaggi (prossime 24 ore)

TLE

AggiornatoSource: Space-Track

Epoca: Sep 14, 2026, 10:08 UTC

1 52757U 22057AB  26257.42262136  .00015557  00000-0  23983-3 0  9991
2 52757  97.6693  62.2895 0005449 100.5387 259.6480 15.54251984240190

Traccia HAWK-5A in tempo reale con AllMySat

Download on the App Store